G3VHU Weather Reports


time (UTC)temp
F
wind
direction
speed
knots
gust
knots
rain 1hr
in
rain 24hr
in
rain mn
in
humidity
%
barometer
mb
20260509044957 49 58 1.7 5.2 0.00 0.00 0.00 92 1020.9
20260509044458 49 39 1.7 5.2 0.00 0.00 0.00 91 1021.0
20260509043958 49 49 1.7 4.3 0.00 0.00 0.00 91 1020.9
20260509043458 49 338 1.7 4.3 0.00 0.00 0.00 91 1020.9
20260509042957 49 37 1.7 4.3 0.00 0.00 0.00 91 1021.0
20260509042457 49 43 0.9 2.6 0.00 0.00 0.00 91 1021.0
20260509041957 49 328 0.9 2.6 0.00 0.00 0.00 92 1021.0
20260509041456 49 345 0.9 2.6 0.00 0.00 0.00 91 1021.0
20260509040955 49 358 0.9 3.5 0.00 0.00 0.00 92 1021.0
20260509040455 49 11 1.7 3.5 0.00 0.00 0.00 92 1021.0
20260509035955 49 1 1.7 3.5 0.00 0.00 0.00 92 1020.9
20260509035455 49 16 1.7 3.5 0.00 0.00 0.00 92 1020.8
20260509034949 49 6 1.7 3.5 0.00 0.00 0.00 92 1020.9
20260509034443 49 342 1.7 3.5 0.00 0.00 0.00 92 1020.8
20260509033944 49 16 0.9 3.5 0.00 0.00 0.00 92 1020.7
20260509033443 49 4 0.9 2.6 0.00 0.00 0.00 92 1020.7
20260509032944 49 336 0.9 2.6 0.00 0.00 0.00 92 1020.7
20260509032443 49 11 0.9 2.6 0.00 0.00 0.00 92 1020.7
20260509031943 49 358 0.9 2.6 0.00 0.00 0.00 92 1020.7
20260509031443 49 42 0.9 2.6 0.00 0.00 0.00 92 1020.6
20260509030941 49 328 0.9 2.6 0.00 0.00 0.00 91 1020.5
20260509030441 49 338 0.9 2.6 0.00 0.00 0.00 92 1020.6
20260509025941 49 37 0.9 2.6 0.00 0.00 0.00 92 1020.5
20260509025439 49 89 0.9 1.7 0.00 0.00 0.00 92 1020.5
20260509024937 49 92 0.9 1.7 0.00 0.00 0.00 92 1020.6
20260509024437 49 75 0.0 1.7 0.00 0.00 0.00 92 1020.6
20260509023937 49 75 0.0 1.7 0.00 0.00 0.00 92 1020.6
20260509023434 49 79 0.0 2.6 0.00 0.00 0.00 92 1020.5
20260509022928 49 77 0.0 2.6 0.00 0.00 0.00 92 1020.6
20260509022429 49 81 0.0 1.7 0.00 0.00 0.00 92 1020.7
20260509021928 49 82 0.0 1.7 0.00 0.00 0.00 92 1020.7
20260509021425 49 84 0.0 0.9 0.00 0.00 0.00 92 1020.8
20260509020925 49 84 0.0 0.9 0.00 0.00 0.00 92 1020.8
20260509020425 49 84 0.0 1.7 0.00 0.00 0.00 92 1020.8
20260509015926 49 84 0.9 2.6 0.00 0.00 0.00 92 1020.8
20260509015425 49 94 0.9 2.6 0.00 0.00 0.00 92 1020.7
20260509014923 49 77 0.9 1.7 0.00 0.00 0.00 92 1020.5
20260509014423 49 91 0.9 2.6 0.00 0.00 0.00 92 1020.6
20260509013923 49 103 1.7 4.3 0.00 0.00 0.00 92 1020.5
20260509013421 49 95 1.7 4.3 0.00 0.00 0.00 92 1020.5
20260509012920 49 84 1.7 4.3 0.00 0.00 0.00 92 1020.5
20260509012422 50 82 1.7 4.3 0.00 0.00 0.00 92 1020.5
20260509011921 49 67 1.7 4.3 0.00 0.00 0.00 92 1020.6
20260509011420 50 92 1.7 3.5 0.00 0.00 0.00 93 1020.6
20260509010914 49 93 1.7 3.5 0.00 0.00 0.00 92 1020.7
20260509010408 49 107 1.7 4.3 0.00 0.00 0.00 92 1020.7
20260509005906 49 150 1.7 4.3 0.00 0.00 0.00 92 1020.7
20260509005403 50 109 2.6 4.3 0.00 0.00 0.00 92 1020.6
20260509004903 50 88 1.7 4.3 0.00 0.00 0.00 93 1020.6
20260509004402 50 85 1.7 4.3 0.00 0.00 0.00 93 1020.7
20260509003903 50 97 2.6 5.2 0.00 0.00 0.00 93 1020.6
20260509003403 50 54 2.6 5.2 0.00 0.00 0.00 93 1020.6
20260509002903 50 67 3.5 5.2 0.00 0.00 0.00 93 1020.5
20260509002404 50 77 2.6 6.1 0.00 0.00 0.00 93 1020.6
20260509001902 50 87 2.6 6.1 0.00 0.00 0.00 93 1020.6
20260509000903 50 124 3.5 7.0 0.00 0.00 0.00 93 1020.6
20260509000403 50 109 3.5 7.0 0.00 0.00 0.00 93 1020.6
20260508235902 50 193 3.5 5.2 0.00 0.00 0.00 93 1020.6
20260508235404 50 93 3.5 6.1 0.00 0.00 0.00 93 1020.6
20260508234902 50 78 3.5 6.1 0.00 0.00 0.00 93 1020.6
20260508234400 50 84 3.5 5.2 0.00 0.00 0.00 93 1020.6
20260508233901 50 95 3.5 6.1 0.00 0.00 0.00 93 1020.8
20260508233400 50 80 3.5 6.1 0.00 0.00 0.00 93 1020.8
20260508232859 50 92 2.6 5.2 0.00 0.00 0.00 93 1020.8
20260508232359 50 90 2.6 5.2 0.00 0.00 0.00 93 1020.9
20260508231900 50 96 2.6 6.1 0.00 0.00 0.00 93 1020.9
20260508231412 50 64 2.6 6.1 0.00 0.00 0.00 93 1020.8
20260508230858 50 86 2.6 6.1 0.00 0.00 0.00 93 1020.7
20260508230357 50 69 2.6 6.1 0.00 0.00 0.00 93 1020.8
20260508225854 50 56 3.5 5.2 0.00 0.00 0.00 93 1020.8
20260508225355 50 96 2.6 5.2 0.00 0.00 0.00 93 1020.8
20260508224855 50 104 2.6 5.2 0.00 0.00 0.00 92 1020.7
20260508224354 50 96 2.6 5.2 0.00 0.00 0.00 93 1020.6
20260508223854 50 91 2.6 5.2 0.00 0.00 0.00 92 1020.7
20260508223353 50 63 2.6 5.2 0.00 0.00 0.00 93 1020.7
20260508222847 50 86 2.6 5.2 0.00 0.00 0.00 93 1020.7
20260508222342 50 68 2.6 4.3 0.00 0.00 0.00 92 1020.8
20260508221838 50 82 2.6 4.3 0.00 0.00 0.00 93 1020.8
20260508221336 50 75 2.6 6.1 0.00 0.00 0.00 92 1020.7
20260508220835 50 86 3.5 6.1 0.00 0.00 0.00 93 1020.7
20260508220336 50 98 2.6 6.1 0.00 0.00 0.00 93 1020.8
20260508215836 50 61 2.6 5.2 0.00 0.00 0.00 93 1020.8
20260508215335 50 49 2.6 5.2 0.00 0.00 0.00 93 1020.8
20260508214836 50 79 2.6 5.2 0.00 0.00 0.00 93 1020.7
20260508214336 50 92 2.6 5.2 0.00 0.00 0.00 93 1020.7
20260508213836 50 80 2.6 5.2 0.00 0.00 0.00 92 1020.6
20260508213336 50 127 1.7 4.3 0.00 0.00 0.00 92 1020.8
20260508212836 50 96 1.7 4.3 0.00 0.00 0.00 92 1020.6
20260508212335 50 104 2.6 4.3 0.00 0.00 0.00 92 1020.6
20260508211833 50 100 2.6 4.3 0.00 0.00 0.00 92 1020.6
20260508211336 50 101 2.6 4.3 0.00 0.00 0.00 92 1020.6
20260508210834 50 93 2.6 5.2 0.00 0.00 0.00 92 1020.6
20260508210334 50 100 2.6 5.2 0.00 0.00 0.00 92 1020.6
20260508205834 50 87 2.6 5.2 0.00 0.00 0.00 92 1020.6
20260508205334 50 44 1.7 5.2 0.00 0.00 0.00 92 1020.6
20260508204834 50 88 1.7 3.5 0.00 0.00 0.00 92 1020.6
20260508204333 50 69 1.7 4.3 0.00 0.00 0.00 92 1020.5
20260508203834 50 53 2.6 4.3 0.00 0.00 0.00 92 1020.5
20260508203333 51 41 1.7 5.2 0.00 0.00 0.00 92 1020.6
20260508202834 51 79 1.7 5.2 0.00 0.00 0.00 92 1020.4
20260508202334 51 79 2.6 6.1 0.00 0.00 0.00 92 1020.4
20260508201834 51 71 2.6 7.0 0.00 0.00 0.00 92 1020.3
20260508201333 51 34 2.6 7.0 0.00 0.00 0.00 92 1020.2
20260508200833 51 67 3.5 6.1 0.00 0.00 0.00 92 1020.2
20260508200333 51 88 3.5 6.1 0.00 0.00 0.00 92 1020.2
20260508195834 51 78 2.6 6.1 0.00 0.00 0.00 92 1020.2
20260508195334 51 79 2.6 5.2 0.00 0.00 0.00 92 1020.2
20260508194834 51 68 2.6 6.1 0.00 0.00 0.00 92 1020.2
20260508194334 51 43 2.6 7.8 0.00 0.00 0.00 92 1020.2
20260508193834 51 86 3.5 7.8 0.00 0.00 0.00 92 1020.2
20260508193334 51 84 4.3 7.8 0.00 0.00 0.00 92 1020.2
20260508192833 51 82 5.2 7.8 0.00 0.00 0.00 92 1020.1
20260508192330 51 84 4.3 7.8 0.00 0.00 0.00 92 1020.1
20260508191830 51 66 4.3 7.8 0.00 0.00 0.00 92 1020.0
20260508191329 51 117 4.3 7.8 0.00 0.00 0.00 91 1019.9
20260508190830 51 86 4.3 7.8 0.00 0.00 0.00 91 1019.7
20260508190333 51 89 4.3 7.8 0.00 0.00 0.00 91 1019.7
20260508185829 51 82 4.3 7.8 0.00 0.00 0.00 91 1019.7
20260508185330 51 88 4.3 7.8 0.00 0.00 0.00 90 1019.7
20260508184830 51 68 3.5 7.8 0.00 0.00 0.00 90 1019.7
20260508184324 51 55 3.5 7.0 0.00 0.00 0.00 89 1019.8
20260508183823 51 65 2.6 7.0 0.00 0.00 0.00 89 1019.8
20260508183323 51 37 2.6 7.0 0.00 0.00 0.00 88 1019.8
20260508182824 51 64 2.6 5.2 0.00 0.00 0.00 87 1019.8
20260508182323 51 77 1.7 5.2 0.00 0.00 0.00 87 1019.8
20260508181824 52 28 1.7 5.2 0.00 0.00 0.00 87 1019.7
20260508181323 51 39 1.7 5.2 0.00 0.00 0.00 87 1019.8
20260508180822 51 84 1.7 5.2 0.00 0.00 0.00 87 1019.7
20260508180321 51 59 1.7 4.3 0.00 0.00 0.00 87 1019.8
20260508175821 51 31 1.7 5.2 0.00 0.00 0.00 87 1019.7
20260508175320 51 124 1.7 5.2 0.00 0.00 0.00 88 1019.6
20260508174813 51 77 2.6 5.2 0.00 0.00 0.00 88 1019.5
20260508174306 51 88 2.6 5.2 0.00 0.00 0.00 87 1019.4
20260508173805 51 81 2.6 5.2 0.00 0.00 0.00 87 1019.3
20260508173306 51 93 2.6 4.3 0.00 0.00 0.00 87 1019.4
20260508172806 51 79 2.6 4.3 0.00 0.00 0.00 88 1019.4
20260508172307 51 90 2.6 4.3 0.00 0.00 0.00 87 1019.4
20260508171803 51 81 1.7 4.3 0.00 0.00 0.00 87 1019.3
20260508171303 51 95 1.7 4.3 0.00 0.00 0.00 87 1019.2
20260508170801 52 68 1.7 4.3 0.00 0.00 0.00 87 1019.2
20260508170301 52 102 2.6 5.2 0.00 0.00 0.00 87 1019.0
20260508165801 52 82 2.6 7.0 0.00 0.00 0.00 87 1019.1
20260508165301 51 55 3.5 7.0 0.00 0.00 0.00 87 1019.0
20260508164801 52 85 3.5 7.8 0.00 0.00 0.00 87 1019.0
20260508164301 51 94 3.5 7.8 0.00 0.00 0.00 86 1019.1
20260508163801 51 86 4.3 7.8 0.00 0.00 0.00 86 1019.1
20260508163301 51 93 5.2 8.7 0.00 0.00 0.00 85 1019.1
20260508162800 51 79 5.2 8.7 0.00 0.00 0.00 85 1019.1
20260508162301 51 115 5.2 8.7 0.00 0.00 0.00 84 1019.0
20260508161801 52 117 5.2 10.4 0.00 0.00 0.00 83 1018.9
20260508161300 52 61 6.1 10.4 0.00 0.00 0.00 82 1018.9
20260508160801 52 74 7.0 12.2 0.00 0.00 0.00 82 1018.9
20260508160302 51 106 7.8 12.2 0.00 0.00 0.00 81 1018.9
20260508155801 51 75 7.8 11.3 0.00 0.00 0.00 78 1018.9
20260508155301 52 93 7.0 12.2 0.00 0.00 0.00 78 1018.8
20260508154801 52 114 7.0 12.2 0.00 0.00 0.00 78 1018.8
20260508154301 52 88 6.1 11.3 0.00 0.00 0.00 76 1019.0
20260508153801 52 87 6.1 10.4 0.00 0.00 0.00 78 1019.1
20260508153301 52 89 6.1 10.4 0.00 0.00 0.00 80 1019.0
20260508152801 52 86 7.0 10.4 0.00 0.00 0.00 82 1018.9
20260508152301 51 83 7.0 9.6 0.00 0.00 0.00 82 1018.9
20260508151801 51 26 7.0 11.3 0.00 0.00 0.00 83 1019.0
20260508151300 51 96 7.0 11.3 0.00 0.00 0.00 83 1018.9
20260508150801 51 94 7.0 11.3 0.00 0.00 0.00 84 1018.9
20260508150301 51 92 7.0 10.4 0.00 0.00 0.00 83 1018.9
20260508145801 51 70 7.0 10.4 0.00 0.00 0.00 84 1018.8
20260508145301 51 92 6.1 10.4 0.00 0.00 0.00 85 1019.0
20260508144801 51 41 6.1 10.4 0.00 0.00 0.00 85 1018.9
20260508144301 51 79 6.1 10.4 0.00 0.00 0.00 86 1018.9
20260508143801 51 70 7.0 11.3 0.00 0.00 0.00 86 1019.0
20260508143301 51 92 7.0 12.2 0.00 0.00 0.00 87 1019.0
20260508142801 51 96 6.1 12.2 0.00 0.00 0.00 87 1019.0
20260508142300 51 87 6.1 10.4 0.00 0.00 0.00 87 1019.0
20260508141801 51 64 6.1 10.4 0.00 0.00 0.00 88 1019.0
20260508141302 51 112 6.1 10.4 0.00 0.00 0.00 87 1019.0
20260508140801 51 107 6.1 12.2 0.00 0.00 0.00 87 1019.0
20260508140254 51 107 7.0 12.2 0.00 0.00 0.00 88 1019.0
20260508135755 51 136 7.8 12.2 0.00 0.00 0.00 89 1019.0
20260508135255 51 92 7.8 12.2 0.00 0.00 0.00 87 1019.1
20260508134754 51 98 7.8 11.3 0.00 0.00 0.00 88 1019.1
20260508134255 51 84 7.8 11.3 0.00 0.00 0.00 86 1019.0
20260508133755 51 96 7.8 11.3 0.00 0.00 0.00 87 1019.0
20260508133255 51 112 7.0 11.3 0.00 0.00 0.00 87 1019.0
20260508132755 51 101 7.0 11.3 0.00 0.00 0.00 87 1019.0
20260508132255 51 122 6.1 11.3 0.00 0.00 0.00 87 1018.9
20260508131755 51 125 6.1 9.6 0.00 0.00 0.00 87 1019.0
20260508131255 51 70 6.1 9.6 0.00 0.00 0.00 87 1019.1
20260508130755 51 76 6.1 8.7 0.00 0.00 0.00 86 1019.0
20260508130255 51 101 6.1 8.7 0.00 0.00 0.00 87 1019.2
20260508125755 52 229 5.2 8.7 0.00 0.00 0.00 87 1019.1
20260508125255 52 66 5.2 8.7 0.00 0.00 0.00 87 1019.1
20260508124752 52 90 5.2 8.7 0.00 0.00 0.00 86 1019.1
20260508124253 52 30 5.2 8.7 0.00 0.00 0.00 86 1019.1
20260508123753 52 98 5.2 8.7 0.00 0.00 0.00 86 1019.1
20260508123253 52 43 5.2 7.8 0.00 0.00 0.00 86 1019.1
20260508122753 52 92 4.3 8.7 0.00 0.00 0.00 86 1019.0
20260508122253 52 97 4.3 8.7 0.00 0.00 0.00 86 1019.0
20260508121753 52 144 3.5 7.8 0.00 0.00 0.00 86 1019.1
20260508121253 52 91 3.5 7.8 0.00 0.00 0.00 86 1019.0
20260508120753 52 65 3.5 7.8 0.00 0.00 0.00 86 1019.1
20260508120252 52 143 3.5 7.8 0.00 0.00 0.00 85 1019.1
20260508115753 52 81 2.6 7.0 0.00 0.00 0.00 85 1019.1
20260508115253 53 160 2.6 5.2 0.00 0.00 0.00 85 1019.1
20260508114752 53 334 2.6 5.2 0.00 0.00 0.00 85 1019.0
20260508114253 52 105 2.6 6.1 0.00 0.00 0.00 85 1019.0
20260508113753 53 175 2.6 6.1 0.00 0.00 0.00 86 1019.0
20260508113253 53 211 2.6 6.1 0.00 0.00 0.00 86 1019.0
20260508112753 52 129 3.5 7.0 0.00 0.00 0.00 86 1019.1
20260508112253 52 58 4.3 7.8 0.00 0.00 0.00 87 1019.0
20260508111753 52 132 5.2 7.8 0.00 0.00 0.00 87 1018.9
20260508111252 52 145 5.2 7.8 0.00 0.00 0.00 87 1019.0
20260508110752 52 156 4.3 7.8 0.00 0.00 0.00 86 1018.9
20260508110305 52 144 4.3 8.7 0.00 0.00 0.00 87 1018.9
20260508105752 52 144 4.3 8.7 0.00 0.00 0.00 87 1018.9
20260508105252 52 151 3.5 7.0 0.00 0.00 0.00 87 1018.8
20260508104752 52 148 4.3 7.0 0.00 0.00 0.00 87 1018.8
20260508104253 52 155 5.2 7.0 0.00 0.00 0.00 87 1018.8
20260508103753 52 147 5.2 7.0 0.00 0.00 0.00 87 1018.9
20260508103248 52 139 5.2 7.0 0.00 0.00 0.00 87 1018.8
20260508102749 52 129 5.2 7.0 0.00 0.00 0.00 87 1018.8
20260508102248 51 172 4.3 7.0 0.00 0.00 0.00 87 1018.8
20260508101748 51 188 3.5 7.0 0.00 0.00 0.00 88 1018.8
20260508101248 51 149 3.5 6.1 0.00 0.00 0.00 88 1018.8
20260508100749 51 177 4.3 6.1 0.00 0.00 0.00 88 1018.8
20260508100248 51 148 4.3 7.0 0.00 0.00 0.00 87 1018.8
20260508095747 51 170 4.3 7.0 0.00 0.00 0.00 87 1018.8
20260508095249 51 158 4.3 6.1 0.00 0.00 0.00 88 1018.8
20260508094748 51 150 5.2 7.0 0.00 0.00 0.00 88 1018.7
20260508094248 50 153 5.2 7.8 0.00 0.00 0.00 88 1018.8
20260508093749 50 174 6.1 7.8 0.00 0.00 0.00 88 1018.9
20260508093248 50 176 6.1 7.8 0.00 0.00 0.00 88 1018.8
20260508092748 50 174 6.1 7.8 0.00 0.00 0.00 88 1018.7
20260508092248 50 174 5.2 8.7 0.00 0.00 0.00 88 1018.7
20260508091748 50 178 5.2 8.7 0.00 0.00 0.00 88 1018.7
20260508091248 50 205 5.2 7.8 0.00 0.00 0.00 89 1018.7
20260508090748 50 174 6.1 8.7 0.00 0.00 0.00 89 1018.7
20260508090248 50 169 6.1 8.7 0.00 0.00 0.00 89 1018.8
20260508085748 50 151 6.1 7.8 0.00 0.00 0.00 89 1018.7
20260508085249 50 168 6.1 8.7 0.00 0.00 0.00 89 1018.7
20260508084749 50 150 7.0 8.7 0.00 0.00 0.00 89 1018.7
20260508084248 50 205 6.1 8.7 0.00 0.00 0.00 89 1018.7
20260508083749 50 176 6.1 8.7 0.00 0.00 0.00 89 1018.7
20260508083248 50 169 6.1 8.7 0.00 0.00 0.00 89 1018.7
20260508082748 50 188 6.1 8.7 0.00 0.00 0.00 89 1018.7
20260508082248 50 178 6.1 8.7 0.00 0.00 0.00 89 1018.7
20260508081748 50 188 7.0 9.6 0.00 0.00 0.00 89 1018.7
20260508081247 50 147 7.0 9.6 0.00 0.00 0.00 89 1018.7
20260508080748 49 148 7.8 11.3 0.00 0.00 0.00 89 1018.6
20260508080248 49 174 7.8 11.3 0.00 0.00 0.00 89 1018.6
20260508075748 49 191 7.8 10.4 0.00 0.00 0.00 89 1018.6
20260508075248 49 154 7.8 10.4 0.00 0.00 0.00 89 1018.6
20260508074748 49 177 7.8 10.4 0.00 0.00 0.00 89 1018.5
20260508074249 49 167 7.8 10.4 0.00 0.00 0.00 89 1018.4
20260508073748 49 172 7.8 10.4 0.00 0.00 0.00 89 1018.4
20260508073246 49 179 7.8 10.4 0.00 0.00 0.00 89 1018.4
20260508072746 49 190 7.8 10.4 0.00 0.00 0.00 88 1018.5
20260508072245 49 197 7.8 12.2 0.00 0.00 0.00 88 1018.4
20260508071745 49 178 8.7 12.2 0.00 0.00 0.00 88 1018.3
20260508071244 49 176 7.8 11.3 0.00 0.00 0.00 88 1018.3
20260508070744 49 185 7.8 10.4 0.00 0.00 0.00 89 1018.2
20260508070243 49 183 7.8 12.2 0.00 0.00 0.00 89 1018.0
20260508065742 49 186 7.8 12.2 0.00 0.00 0.00 89 1018.0
20260508065242 49 174 8.7 11.3 0.00 0.00 0.00 88 1017.9
20260508064742 49 166 7.8 10.4 0.00 0.00 0.00 89 1018.0
20260508064240 49 178 7.8 10.4 0.00 0.00 0.00 89 1017.9
20260508063739 49 167 8.7 11.3 0.00 0.00 0.00 88 1017.8
20260508063240 49 174 8.7 11.3 0.00 0.00 0.00 88 1017.9
20260508062740 49 176 7.8 11.3 0.00 0.00 0.00 88 1017.8
20260508062240 49 173 7.8 11.3 0.00 0.00 0.00 88 1017.8
20260508061740 49 176 7.8 10.4 0.00 0.00 0.00 88 1017.9
20260508061240 49 198 7.8 11.3 0.00 0.00 0.00 89 1017.8
20260508060740 49 167 7.8 11.3 0.00 0.00 0.00 88 1017.8
20260508060238 49 176 7.8 9.6 0.00 0.00 0.00 89 1017.8
20260508055738 49 178 7.8 11.3 0.00 0.00 0.00 88 1017.8
20260508055238 49 186 7.8 11.3 0.00 0.00 0.00 88 1017.8
20260508054738 49 184 7.8 10.4 0.00 0.00 0.00 88 1017.8
20260508054238 49 175 7.8 10.4 0.00 0.00 0.00 88 1017.7
20260508053738 49 172 7.8 12.2 0.00 0.00 0.00 89 1017.7
20260508053238 49 186 8.7 12.2 0.00 0.00 0.00 88 1017.7
20260508052737 49 170 8.7 11.3 0.00 0.00 0.00 88 1017.4
20260508052237 49 195 8.7 11.3 0.00 0.00 0.00 88 1017.5
20260508051738 49 176 7.8 11.3 0.00 0.00 0.00 88 1017.5
20260508051236 49 162 7.0 10.4 0.00 0.00 0.00 88 1017.4
20260508050736 49 184 7.8 10.4 0.00 0.00 0.00 88 1017.5
20260508050236 49 172 7.0 10.4 0.00 0.00 0.00 88 1017.4
20260508045736 49 158 7.0 10.4 0.00 0.00 0.00 88 1017.4